www.pogodaiklimat.ru

Погода и климат >> Архив погоды >> Южная Африка >> Йестерплант


ПОГОДА в Йестерпланте

  • Прогноз погоды в Йестерпланте
  • Монитор погоды в Йестерпланте

АРХИВ ПОГОДЫ в Йестерпланте

Время (UTC), дата Ветер
(напр.,м/с)
 
Видим.   Явления Облачность Т
(С)
Тd
(С)
f
(%)
Тe
(С)
Тes
(С)
Комфортность P
(гПа)
Po
(гПа)
Тmin
(С)
Tmax
(С)
R
(мм)
R24
(мм)
S
(см)
15 18.08 ЮЗ 2 н/о н/о +29.8 +4.7 20 +28 +28 жарко 974.6 +27.3 +30.6
18 18.08 Ю 3 5000 м ясно +18.4 +10.8 61 +19 +19 979.3 +18.3 +30.6
21 18.08 Ю 3 н/о н/о +14.2 +9.0 71 +13 +13 982.5 +14.1 +30.6
00 19.08 З 3 н/о н/о +13.2 +8.5 73 +12 +12 984.5 +12.5 +30.6
03 19.08 СЗ 2 н/о н/о +11.9 +6.6 70 +11 +11 986.1 +10.6 +30.6
06 19.08 З 4 20 км 8/8 1500 м
[Sc]
+12.8 +8.1 73 +11 +11 989.0 +10.5
09 19.08 ЮЗ 6 н/о н/о +16.4 +3.5 42 +15 +15 990.8 +10.5 +16.4
12 19.08 ЮЗ 6 20 км 4/4 2000 м
[Cu hum]
+18.6 +1.7 32 +18 +21 989.9 +10.5 +19.2
15 19.08 ЮЗ 5 н/о н/о +17.7 +2.9 37 +17 +17 990.6 +17.7 +19.9
18 19.08 ЮВ 2 20 км 1/1 1500 м
[Cu hum]
+12.8 +4.0 55 +13 +13 992.8 +12.1 +19.9
21 19.08 С 2 н/о н/о +10.2 +3.2 62 +9 +9 994.4 +10.2 +19.9
00 20.08 СВ 2 н/о н/о +7.9 +2.7 70 +7 +7 994.2 +7.9 +19.9
03 20.08 штиль 0 н/о н/о +4.7 +0.8 76 +4 +4 993.9 +4.7 +19.9
06 20.08 С 1 20 км ясно +6.6 +2.3 74 +6 +6 994.3 +3.5
09 20.08 ЮВ 2 н/о н/о +15.5 +4.3 47 +16 +16 993.7 +3.5 +15.7
12 20.08 З 2 н/о н/о +20.6 +2.6 30 +22 +22 комфорт 991.3 +3.5 +21.1
15 20.08 ЮЗ 1 н/о н/о +23.0 -1.6 19 +22 +22 комфорт 989.8 +20.3 +23.4
18 20.08 СВ 2 20 км ясно +15.3 -0.3 34 +16 +16 990.5 +14.9 +23.5
21 20.08 С 2 н/о н/о +11.2 +1.4 51 +10 +10 991.0 +11.2 +23.5
00 21.08 С 1 н/о н/о +8.6 +1.7 62 +8 +8 990.8 +8.5 +23.5
03 21.08 С 3 н/о н/о +6.8 +0.4 64 +4 +4 989.8 +6.7 +23.5
06 21.08 С 2 20 км ясно +7.8 +1.2 63 +7 +7 990.3 +4.9
09 21.08 ЮВ 1 н/о н/о +18.1 +4.4 40 +19 +19 989.3 +4.9 +18.1
12 21.08 В 1 20 км ясно +25.4 +1.0 20 +24 +35 комфорт 985.3 +4.9 +25.4
15 21.08 Ю 1 н/о н/о +28.6 -2.1 13 +26 +26 жарко 983.2 +25.6 +29.2
18 21.08 С 3 20 км ясно +18.1 -1.5 26 +18 +18 983.8 +18.1 +29.2
21 21.08 С 2 н/о н/о +13.6 -3.1 31 +14 +14 984.1 +13.6 +29.2
00 22.08 С 2 н/о н/о +10.5 -3.5 37 +10 +10 983.3 +7.2 +29.2
03 22.08 СВ 1 н/о н/о +8.4 -3.1 44 +8 +8 983.3 +7.2 +29.2
06 22.08 СВ 1 20 км 1/0
[Ci fib]
+10.5 -3.9 36 +11 +11 984.7 +6.7
09 22.08 В 1 н/о н/о +21.8 -2.6 19 +21 +21 комфорт 984.2 +6.7 +21.8
12 22.08 З 3 20 км 4/0
[Ci fib]
+30.2 -3.1 11 +27 +35 жарко 982.0 +6.7 +30.2
15 22.08 Ю 5 н/о н/о +29.0 -1.8 13 +26 +26 жарко 982.4 +29.0 +32.2
18 22.08 ЮВ 2 20 км 6/0
[Ci fib]
+19.7 +1.3 29 +21 +21 комфорт 984.3 +19.5 +32.2
21 22.08 С 3 н/о н/о +15.4 -0.2 34 +15 +15 985.7 +14.1 +32.2
00 23.08 С 1 н/о н/о +11.5 -0.5 43 +12 +12 985.7 +11.5 +32.2
03 23.08 штиль 0 н/о н/о +8.6 -0.9 51 +8 +8 985.6 +8.6 +32.2
06 23.08 СВ 1 20 км ясно +10.0 -0.7 47 +10 +11 986.7 +6.9
09 23.08 Ю 2 н/о н/о +20.1 +0.1 26 +21 +21 комфорт 986.8 +6.9 +20.8
12 23.08 ЮЗ 2 20 км ясно +27.2 -2.3 14 +25 +36 комфорт 984.2 +6.9 +27.3
15 23.08 ЮЗ 2 н/о н/о +29.5 -3.7 11 +26 +26 жарко 983.2 +27.1 +30.2
18 23.08 С 2 20 км ясно +19.9 -2.2 22 +20 +20 984.6 +19.9 +30.2
21 23.08 С 2 н/о н/о +15.6 -3.2 27 +16 +16 984.8 +15.6 +30.2
00 24.08 С 2 н/о н/о +12.4 -2.9 34 +12 +12 984.2 +11.4 +30.2
06 24.08 штиль 0 н/о н/о +10.8 -2.5 39 +11 +11 984.1 +7.8
09 24.08 Ю 2 н/о н/о +21.9 -1.2 21 +21 +21 комфорт 983.3 +7.8 +21.9
12 24.08 ЮЗ 3 20 км ясно +28.7 -3.1 12 +26 +35 жарко 979.1 +7.8 +29.3
15 24.08 ЮЗ 5 н/о н/о +29.6 -3.6 11 +26 +26 жарко 977.5 +29.0 +31.3
18 24.08 С 2 20 км ясно +20.9 -1.4 22 +21 +21 комфорт 979.2 +20.9 +31.3
21 24.08 С 3 н/о н/о +16.8 -1.6 28 +17 +17 979.8 +14.9 +31.3
00 25.08 С 2 н/о н/о +13.0 -2.0 35 +13 +13 980.5 +12.3 +31.3
03 25.08 СВ 2 н/о н/о +10.4 -2.2 41 +10 +10 979.0 +9.6 +31.3
06 25.08 СВ 1 20 км ясно +10.0 -2.2 42 +10 +11 980.1 +7.6
09 25.08 Ю 2 н/о н/о +23.2 -4.6 15 +21 +21 комфорт 979.5 +7.6 +23.2
12 25.08 З 6 н/о н/о +28.6 -4.4 11 +25 +25 комфорт 977.0 +7.6 +28.8

 

Местоположение метеостанции Йестерплант (Южная Африка): широта -33.90 долгота 18.50 высота над уровнем моря 16 м.

В архиве по умолчанию представлена погода в Йестерпланте за последнюю неделю. Архивные данные за месяц целиком и за предыдущие месяцы, начиная с января 2011 года, Вы можете получить, выбрав интересующий диапазон дат из раскрывающегося списка и нажав кнопку "Ввод!".


*Определитесь, кто Вы:
робот инопланетянин человек

Внимание! Время в таблицах - всемирное. Для получения местного времени необходимо прибавить поправку, которая равна 2 ч.

Смотрите также архив погоды в соседних городах и на ближайших метеорологических станциях:

Погода в Кейптаун порту (Южная Африка) (6 км)
Погода в Кейптауне (Южная Африка) (9 км)
Погода в Кейптауне (Южная Африка) (11 км)
Погода в Кейптауне аэропорту АМС (Южная Африка) (11 км)
Погода на Роббенэйланде (Южная Африка) (16 км)
Погода на Слангкопе (Южная Африка) (32 км)
Погода в Странде (Южная Африка) (42 км)
Погода в Парле (Южная Африка) (48 км)
Погода на Кейп-Пойнт (Южная Африка) (50 км)
Погода в Малмсбери (Южная Африка) (53 км)

Пояснения к столбцам:

Ветер - указаны скорость ветра в м/с - средняя за 10 мин, порывы в срок и между сроками (в фигурных скобках) и направление, откуда дует ветер: С - северный, СВ - северо-восточный, В - восточный, ЮВ - юго-восточный, Ю - южный, ЮЗ - юго-западный, З - западный, СЗ - северо-западный.
Видимость - горизонтальная дальность видимости в метрах или километрах. При видимости от 1 до 10 км при отсутствии осадков обычно наблюдается дымка, при ухудшении видимости до 1 км и менее - туман. В сухую погоду видимость может ухудшаться дымом, пылью или мглою.
Явления - указаны атмосферные явления, наблюдавшиеся в срок или в последний час перед сроком; фигурными скобками обозначены явления, наблюдавшиеся между сроками (за 1-3 часа до срока); квадратными скобками обозначены град или гололедные отложения с указанием их диаметра в мм.
Облачность - указаны через наклонную черту общая и нижняя облачность в баллах и высота нижней границы облаков в метрах; квадратными скобками обозначены формы облаков: Ci - перистые, Cs - перисто-слоистые, Cc - перисто-кучевые, Ac - высококучевые, As - высокослоистые, Sc - слоисто-кучевые, Ns - слоисто-дождевые, Cu - кучевые, Cb - кучево-дождевые. Подробнее классификацию облаков см. в Атласе облаков (PDF).
T - Температура воздуха - температура, измеренная на высоте 2 м над землей.
Td - Температура точки росы - температура, при понижении до которой содержащийся в воздухе водяной пар достигнет насыщения.
f - Относительная влажность воздуха - влажноcть воздуха, измеренная на высоте 2 м над землей.
Te - Эффективная температура - температура, которую ощущает одетый по сезону человек в тени. Характеристика душности погоды. При расчете учитывается влияние влажности воздуха и скорости ветра на теплоощущения человека.
Tes - Эффективная температура на солнце - температура, которую ощущает человек, с поправкой на солнечный нагрев. Характеристика знойности погоды. Зависит от высоты солнца над горизонтом, облачности и скорости ветра. Ночью, в пасмурную погоду, а также при ветре 12 м/с и более поправка равна нулю.
P - Атмосферное давление - приведенное к уровню моря атмосферное давление.
Po - Атмосферное давление - измеренное на уровне метеостанции атмосферное давление.
Tmin - Минимальная температура - минимум температуры воздуха на высоте 2 м над землей.
Tmax - Максимальная температура - максимум температуры воздуха на высоте 2 м над землей.
R - Количество осадков - Количество выпавших осадков за период времени, мм. При наведении курсора мыши на число - период времени, за который выпало указанное количество осадков.
R24 - Количество осадков - Количество выпавших осадков за 24 часа, мм.
S - Снежный покров - Высота снежного покрова, см. При наведении курсора мыши на число - состояние снежного покрова и степень покрытия местности в баллах.